Theta_e
358 361 364 367 364 362 347 352 349 350 347 347 348 351 352 348 350 352 346 347 347 349 338 333 327 325 340 342 341 332 333 334 337 339 338 341 331 338 334 340 339 334 337 343 340 332 331 332 332
357 365 362 363 365 348 347 348 348 346 347 347 350 352 349 346 345 345 345 346 348 347 346 329 326 325 328 333 331 330 333 336 338 340 338 332 338 339 340 338 334 332 339 337 335 334 333 332 333
351 358 360 367 348 350 349 347 347 347 347 347 349 352 348 344 344 345 345 345 346 346 345 328 326 325 326 326 326 326 326 328 331 337 337 338 331 338 339 341 336 339 333 341 335 334 334 333 333
355 356 359 348 349 346 348 347 348 347 345 346 349 349 346 343 344 343 344 343 344 346 339 328 327 326 326 329 330 328 327 327 329 340 340 339 339 331 338 336 338 331 332 337 338 335 333 333 334
349 349 353 346 346 346 348 347 348 348 345 347 348 347 344 344 342 343 344 343 345 346 331 328 327 327 327 332 333 333 332 329 327 329 336 339 338 338 335 339 332 340 341 332 336 340 337 335 334
346 349 348 347 345 345 345 346 346 345 343 344 347 347 346 343 342 343 343 345 348 347 340 328 328 328 328 334 335 336 337 336 332 328 329 336 339 341 335 339 341 335 340 339 333 335 334 339 334
344 346 348 345 347 345 345 344 348 347 345 345 345 347 345 342 341 342 343 343 345 344 343 333 330 328 330 337 337 337 338 338 336 331 327 330 333 337 340 335 335 340 339 335 339 340 332 331 328
343 345 345 345 345 346 346 345 345 347 346 346 345 345 344 342 341 341 341 341 342 345 345 345 340 334 343 344 342 340 337 337 337 335 329 337 346 342 338 337 336 337 336 339 335 333 337 331 330
342 348 345 345 346 347 346 347 346 347 347 347 348 344 344 342 341 341 340 341 343 345 344 345 346 346 347 338 347 340 338 335 335 334 333 345 346 347 347 345 338 336 335 335 335 337 332 330 333
341 343 343 342 343 345 346 346 346 346 347 346 345 345 343 343 341 341 340 341 343 343 345 345 347 348 346 349 346 345 344 344 340 332 340 344 346 345 346 345 344 340 335 335 336 335 335 335 333
339 343 343 342 342 343 344 343 345 348 350 346 346 344 343 343 342 342 341 341 342 343 343 346 347 346 345 347 348 347 347 344 340 343 345 346 348 349 346 347 346 347 341 343 347 346 345 345 347
338 341 342 344 341 342 343 343 345 347 348 346 346 344 343 342 342 342 342 341 342 343 344 344 345 345 348 346 343 346 347 347 344 344 345 347 348 349 348 348 347 347 349 347 346 347 346 347 349
339 340 342 343 342 341 343 345 346 347 346 345 345 343 342 342 342 342 342 342 343 344 346 345 347 347 346 347 347 347 347 343 347 346 349 345 345 344 347 347 347 349 347 347 347 347 346 345 346
338 341 342 343 346 345 347 348 346 346 345 346 345 345 344 344 343 343 344 344 345 347 348 347 349 349 348 341 347 346 346 347 345 345 343 344 343 343 343 343 349 349 349 348 350 349 348 348 346
339 342 345 344 343 340 338 340 348 346 346 346 347 346 347 349 346 346 346 345 346 349 349 350 350 351 350 349 344 346 349 347 348 338 342 341 341 339 339 343 346 351 350 345 347 349 349 349 349
342 343 347 343 343 341 340 344 339 342 347 347 347 347 350 347 340 344 348 349 348 350 346 350 347 350 350 350 348 350 349 340 351 341 340 336 341 342 341 340 344 346 343 346 350 350 351 346 350
339 346 345 343 342 347 346 342 335 343 347 347 346 348 348 342 336 337 347 347 341 343 348 351 348 349 350 350 350 349 350 352 349 350 347 346 343 346 343 348 349 349 345 349 344 346 347 344 351
341 344 343 345 345 341 345 344 348 344 346 347 346 347 350 347 341 338 344 348 336 351 351 352 349 350 351 351 350 350 350 352 351 350 350 351 351 348 349 349 351 351 349 350 347 344 344 346 349
339 341 342 338 340 336 338 351 351 347 346 347 347 348 351 349 348 347 351 351 352 354 351 352 352 350 352 354 352 351 351 351 351 351 350 349 351 349 351 346 352 353 351 348 350 346 351 351 351
340 340 338 339 337 337 341 341 347 346 347 346 349 348 350 351 351 351 349 349 355 355 353 354 353 353 350 353 353 352 351 350 350 351 351 352 352 353 350 348 350 353 353 348 351 352 346 348 347
336 338 338 339 340 340 336 340 341 342 344 345 346 349 350 350 350 352 350 350 351 353 355 351 354 354 348 355 352 354 350 353 352 354 353 353 352 352 354 351 350 348 351 350 352 352 350 348 349
337 337 337 334 335 342 336 341 345 341 345 347 347 349 350 349 350 350 349 350 349 354 355 355 355 356 354 352 355 354 353 352 352 352 349 352 354 353 352 351 351 351 350 349 351 354 351 350 348
337 337 336 334 335 339 341 342 345 341 343 345 347 348 348 348 347 348 349 348 350 352 355 356 358 358 357 356 352 355 353 355 354 354 354 351 348 353 351 353 352 352 351 349 350 352 351 351 350
337 337 336 334 337 340 342 341 349 347 347 343 349 348 347 347 348 348 351 350 352 352 356 357 359 359 355 359 355 351 354 354 351 349 348 351 353 354 354 353 353 351 351 353 352 351 350 349 349
336 336 335 344 347 341 338 340 347 345 344 349 350 348 347 349 349 349 352 353 353 353 355 358 359 357 356 355 354 355 354 354 349 352 352 352 352 352 351 352 350 351 352 350 350 350 350 350 351
337 335 337 348 341 343 340 339 347 345 344 346 348 348 348 347 349 349 350 350 355 356 356 354 354 355 354 353 353 351 353 352 352 351 351 352 350 351 352 352 351 350 349 350 350 351 350 352 351
336 335 335 337 338 336 346 351 349 346 346 346 347 347 348 347 348 356 358 358 357 359 357 355 355 355 354 353 353 352 352 352 352 352 351 349 349 348 348 348 347 347 348 350 348 349 350 350 349
333 335 336 333 336 334 350 354 357 346 351 348 350 349 352 348 353 356 355 356 356 356 355 355 353 351 351 349 348 347 346 343 342 339 340 337 333 330 327 323 323 326 334 342 346 346 346 349 349
333 335 335 334 333 336 341 344 346 344 348 349 349 350 351 353 353 352 351 350 348 346 344 342 341 340 339 339 339 335 333 332 331 331 328 329 322 320 319 321 322 325 325 333 336 338 339 340 344
334 334 334 333 337 336 339 343 342 340 348 348 349 350 352 352 349 345 341 338 334 334 335 334 333 333 329 325 326 333 333 331 332 332 332 329 326 325 325 329 327 328 328 328 331 334 336 337 336
Wind_Speed
4 10 10 6 4 4 11 14 11 13 15 21 20 15 15 9 9 14 27 24 23 21 21 19 18 17 18 16 16 14 14 13 13 13 13 13 14 13 13 13 13 14 14 14 15 16 16 17 19
1 8 8 9 4 12 10 17 16 12 19 10 23 27 20 21 29 29 26 24 23 21 19 20 17 16 15 14 13 13 13 12 12 12 12 11 12 13 12 12 12 13 14 13 13 13 14 15 17
4 2 11 5 12 11 11 12 9 10 11 8 19 18 14 26 26 23 27 26 21 21 18 19 17 15 14 13 13 12 12 12 12 11 9 10 10 11 12 12 11 12 11 12 11 12 12 14 16
8 10 11 9 12 14 15 9 22 9 14 11 21 13 23 19 25 27 27 23 21 21 16 18 16 14 13 12 12 12 12 12 11 11 10 9 9 9 10 10 11 10 10 10 10 10 10 11 13
14 11 3 9 14 14 10 15 18 12 16 24 26 23 20 21 25 24 25 21 26 22 13 16 14 13 12 11 10 10 10 10 10 10 10 10 9 8 8 8 9 9 10 9 8 9 8 9 9
15 15 3 9 14 14 9 16 11 16 15 20 24 18 16 21 25 22 22 23 24 18 16 13 12 11 10 9 9 8 9 8 9 9 9 10 9 7 7 7 8 7 8 8 8 7 8 8 8
12 6 6 13 13 9 16 12 16 17 15 24 22 17 20 22 22 20 21 19 21 20 13 11 9 9 9 7 6 6 6 7 7 8 8 9 10 8 5 5 6 5 5 6 6 6 7 7 8
12 6 15 8 12 8 12 15 9 16 8 18 19 16 22 24 23 20 19 17 18 19 9 11 7 8 6 4 3 4 4 5 6 7 7 8 8 7 7 3 2 3 4 4 5 5 5 7 8
9 3 10 15 14 9 18 13 11 16 12 4 15 24 26 25 23 21 20 17 16 13 12 12 11 12 3 1 4 4 5 6 5 5 5 5 7 2 5 4 3 1 2 3 3 3 4 6 7
2 7 14 14 15 10 12 8 10 13 15 14 23 23 24 24 22 22 20 18 14 13 12 13 13 13 7 4 2 3 6 9 7 4 3 7 2 2 0 2 3 2 2 2 1 1 3 4 7
12 7 16 17 13 17 15 15 13 15 12 17 20 23 23 22 20 20 18 16 15 14 11 9 11 10 9 6 6 3 3 8 6 5 5 4 3 6 8 4 1 2 1 1 5 1 1 2 3
12 6 15 11 18 12 15 15 15 13 18 16 18 21 21 19 18 17 17 17 17 16 14 12 13 7 5 7 1 3 3 6 4 2 4 2 5 2 4 3 3 1 4 3 4 4 4 7 9
14 6 12 9 14 17 18 16 13 13 16 18 18 18 17 17 17 16 15 14 16 16 13 12 12 12 10 11 7 4 5 4 4 4 2 1 4 3 4 4 6 3 6 6 6 11 15 14 14
6 11 11 10 20 19 14 13 6 10 16 18 17 18 18 17 16 13 14 14 17 15 14 13 9 9 9 10 11 10 3 5 6 2 5 5 6 3 2 6 7 4 2 5 5 9 10 10 10
7 8 12 9 20 12 22 9 4 4 13 13 14 12 13 11 11 8 10 15 13 14 17 14 14 9 10 9 6 9 3 4 1 3 5 4 5 3 3 4 6 2 2 3 1 3 4 3 5
20 12 11 25 8 10 5 3 21 19 14 14 14 14 16 22 9 28 8 10 15 13 11 17 11 13 10 7 7 8 4 3 6 3 0 6 2 1 2 3 3 3 1 5 1 5 4 3 2
9 15 16 9 29 14 10 4 27 22 16 15 15 20 26 20 7 17 25 6 11 15 9 14 13 13 12 11 6 6 7 6 4 8 7 7 1 1 4 3 1 4 3 4 5 2 4 4 2
13 9 10 20 11 12 15 18 21 32 18 16 13 18 24 21 15 4 5 5 5 22 19 16 14 10 8 8 11 9 7 8 12 9 9 13 7 4 1 5 6 2 4 5 10 7 4 4 4
15 21 23 8 11 3 8 24 23 19 16 15 9 12 29 23 11 18 7 28 17 30 22 20 13 15 14 8 6 7 8 9 7 10 7 6 5 6 7 8 11 9 9 8 10 7 10 11 9
23 19 4 11 8 3 18 26 15 12 13 14 16 10 12 16 13 6 7 10 25 17 15 18 13 11 12 7 9 7 6 8 7 9 10 10 11 7 11 7 9 13 11 8 8 8 8 7 10
12 9 11 6 8 5 8 16 6 3 11 7 10 9 11 9 8 7 5 5 12 16 10 11 13 9 10 12 8 6 10 7 10 10 12 11 10 5 8 10 13 16 10 9 12 12 8 7 9
1 3 11 9 5 8 8 3 6 2 8 13 6 6 9 8 9 6 8 5 7 14 11 7 9 11 7 14 10 7 7 9 13 13 19 9 2 3 9 10 14 17 12 14 12 11 14 15 13
2 7 10 12 9 11 13 4 26 3 13 29 12 11 9 10 8 8 10 8 8 8 8 9 10 12 9 7 10 7 10 9 17 6 11 10 15 6 8 13 14 16 15 13 14 16 17 18 18
14 8 13 13 10 5 6 14 12 11 20 37 12 11 8 11 10 10 11 11 10 11 8 6 11 11 14 10 9 10 7 6 9 14 12 8 8 12 12 14 11 14 16 16 17 19 17 16 17
17 10 11 6 4 2 17 14 12 14 13 14 14 14 13 11 10 11 12 11 10 9 9 10 5 5 6 7 8 9 10 7 7 8 9 7 7 10 9 10 11 10 10 12 15 16 15 15 17
15 13 7 4 7 15 21 6 10 14 15 17 16 14 15 12 13 11 13 12 11 9 11 11 5 4 3 6 7 6 7 9 11 8 5 12 10 11 12 11 12 11 10 12 12 14 13 14 17
14 14 19 16 24 14 12 20 16 7 10 11 15 14 15 14 15 17 14 13 15 11 13 11 7 7 8 7 7 7 8 7 8 12 12 14 12 13 14 15 15 13 12 12 14 13 14 18 20
22 14 14 9 14 11 5 3 3 4 6 10 10 9 13 16 16 14 11 9 7 8 9 8 4 3 2 1 1 3 1 6 7 8 10 12 12 14 15 15 15 16 15 15 15 16 15 15 17
17 16 13 14 12 11 3 2 10 15 11 12 15 17 18 19 16 16 17 16 14 13 12 10 8 8 5 5 5 5 5 5 5 10 10 11 12 12 12 13 14 14 13 10 13 16 17 15 17
19 17 18 11 17 4 5 5 21 19 20 20 19 21 21 19 19 18 17 16 16 15 12 10 7 4 2 1 3 2 3 5 4 8 8 10 11 11 10 11 11 11 11 12 12 13 13 15 16
Wind_Direction
87 25 14 259 267 217 45 94 104 63 55 69 61 78 88 64 71 107 134 129 130 133 133 129 123 117 104 98 94 94 92 90 88 83 80 79 80 81 85 85 82 87 94 95 98 103 103 101 98
324 276 277 279 256 61 59 48 60 55 60 67 65 60 51 87 104 120 122 129 133 132 132 132 126 119 114 112 103 98 95 90 85 82 82 84 81 82 90 86 82 90 97 100 103 106 104 104 104
5 270 263 216 46 57 73 71 87 80 106 122 96 88 86 104 118 120 129 132 130 132 138 134 128 122 115 108 102 93 88 84 80 77 80 86 87 89 89 91 86 93 100 105 111 107 105 106 104
316 263 248 68 75 64 73 59 99 44 54 78 107 75 108 109 115 128 134 130 135 136 152 137 129 126 119 109 103 95 85 80 78 75 72 86 97 103 96 91 83 97 104 111 107 112 115 112 112
260 269 242 79 64 72 65 49 95 76 91 69 94 109 104 108 125 132 137 135 134 148 141 141 133 129 124 113 102 94 87 80 78 74 70 76 101 107 110 98 101 101 106 109 118 117 126 130 128
254 242 303 80 60 72 44 124 82 93 101 115 108 116 113 122 136 140 138 134 139 138 144 150 143 134 131 119 108 98 91 81 74 73 71 69 77 93 109 113 102 113 114 115 134 136 147 142 140
270 301 134 85 89 48 60 56 65 69 79 88 112 121 132 136 142 143 138 137 134 136 150 158 153 136 121 102 82 86 86 79 71 67 75 74 69 71 76 102 118 123 130 143 147 158 156 162 155
9 331 65 75 80 49 89 50 56 105 84 123 126 137 146 147 149 146 139 147 130 138 140 159 152 102 83 57 70 22 63 72 64 65 79 91 62 79 56 58 79 122 159 166 176 185 176 182 176
9 160 49 68 87 82 53 78 102 111 110 62 154 145 147 151 152 153 147 152 138 142 165 165 163 134 166 90 122 45 61 61 48 48 79 82 65 85 51 7 3 270 210 185 198 220 213 208 214
205 52 89 82 89 91 74 105 139 137 117 103 109 125 146 154 158 160 161 161 162 164 172 184 160 146 147 181 19 32 75 28 360 353 86 108 136 314 158 293 349 280 241 210 113 279 258 236 223
81 85 83 68 83 79 72 44 19 123 128 138 137 145 155 159 165 165 170 170 170 170 169 161 157 156 137 143 154 228 359 23 32 43 103 184 146 195 186 233 80 106 114 148 303 287 350 140 241
100 49 98 111 81 91 84 66 60 64 99 125 146 153 157 165 171 171 177 172 169 175 167 179 180 170 152 150 166 35 87 64 14 106 84 246 183 131 138 83 94 75 245 201 247 279 254 236 272
120 100 109 125 111 99 84 67 81 94 112 131 138 150 163 175 179 175 179 169 171 168 169 181 185 188 182 153 145 84 132 339 345 63 254 32 129 177 161 206 161 242 264 209 234 244 247 246 243
111 136 119 131 80 96 89 41 21 116 134 134 155 165 171 171 184 174 175 171 164 172 175 178 190 216 179 179 161 145 263 298 4 13 35 116 94 94 106 139 123 195 239 248 250 261 249 260 248
149 100 9 157 107 95 83 14 317 137 148 161 178 172 132 84 70 18 186 167 156 158 167 167 180 196 178 175 168 149 165 183 209 56 83 58 83 50 86 109 138 35 276 287 314 291 267 245 219
87 48 30 301 13 63 280 314 293 269 166 194 182 174 121 86 332 310 221 130 161 165 202 176 184 183 175 185 154 182 223 160 162 287 22 84 68 31 84 66 86 136 287 19 314 298 323 322 280
182 168 177 252 266 178 186 204 255 246 188 191 195 180 134 116 8 256 241 356 150 208 178 172 178 177 178 176 171 175 200 251 255 249 255 279 42 35 59 57 110 11 266 342 355 327 320 346 265
33 359 236 199 238 182 134 154 219 230 210 180 217 164 156 168 170 203 238 203 252 164 173 184 176 162 154 203 173 185 231 219 237 261 269 270 272 262 24 318 279 310 347 272 304 296 323 324 322
151 207 250 136 108 359 297 173 182 176 201 204 201 185 167 179 181 177 168 191 161 164 158 158 160 186 186 182 158 198 236 255 250 229 244 251 255 281 299 292 282 233 234 276 285 294 305 304 303
187 226 5 38 43 279 48 322 147 161 199 222 177 224 164 182 194 179 209 200 158 161 151 137 154 202 190 185 195 213 205 259 276 233 217 233 240 272 269 267 267 283 223 278 277 267 282 264 294
243 67 277 217 188 77 61 233 143 340 332 223 222 186 164 203 225 183 229 234 146 154 159 134 155 218 186 183 215 227 211 247 269 241 249 227 228 251 295 291 292 283 297 267 278 283 289 281 265
249 9 287 282 238 240 135 279 286 301 307 300 215 180 168 194 168 197 177 195 154 152 150 158 175 196 224 192 196 225 241 253 258 267 256 266 296 230 283 289 289 285 288 272 265 281 276 272 262
161 210 280 285 252 239 169 109 261 328 17 294 210 167 188 146 150 172 174 162 143 125 150 172 194 197 192 233 219 211 246 262 291 278 291 265 268 295 306 275 271 274 275 285 263 253 262 262 265
276 293 280 253 276 2 155 196 171 170 185 223 161 156 156 128 142 151 128 146 119 147 149 182 194 199 206 207 235 236 252 243 283 294 316 318 340 309 271 274 292 283 277 270 275 273 269 266 270
243 259 256 8 5 260 275 266 130 92 112 138 144 143 133 131 142 151 137 155 142 148 167 161 201 202 216 237 241 247 263 267 292 310 309 297 286 285 285 288 297 308 304 286 279 281 280 276 276
218 251 234 131 267 223 237 263 98 100 107 119 134 144 139 153 138 150 157 150 138 155 168 173 174 133 211 219 239 246 236 244 270 294 272 269 296 296 284 283 284 291 299 294 296 285 290 299 285
245 226 251 199 227 260 102 84 48 60 98 115 142 158 158 155 144 117 112 122 138 110 141 165 174 194 223 226 248 258 260 273 265 269 281 279 281 281 280 275 279 282 284 283 285 286 281 280 279
248 264 293 230 267 273 113 55 160 287 180 149 135 169 151 153 142 136 146 142 132 115 112 112 102 159 171 11 261 314 303 311 290 299 279 282 278 281 290 294 291 286 277 267 273 281 276 282 290
223 242 257 287 293 295 50 191 199 207 210 177 157 159 160 149 141 136 127 126 128 125 119 116 112 103 104 190 215 237 255 272 342 291 304 296 302 304 306 302 297 298 299 289 272 271 278 285 285
224 225 232 243 243 232 119 79 355 331 228 161 164 157 151 144 153 149 145 142 135 127 126 121 111 115 203 343 54 345 330 2 300 311 308 319 323 326 328 326 321 312 302 295 288 283 285 284 283